{"data":{"norad_id":68626,"epoch":"2026-05-25T02:10:54.478848Z","epoch_age_seconds":63846,"freshness":"FRESH","line1":"1 68626U 26073AA  26145.09090832  .00203588  00000+0  13337-2 0  9999","line2":"2 68626  97.2852 344.6285 0001480  81.5547 278.5886 15.75187692  7583","mean_motion":15.75187692,"eccentricity":0.000148,"inclination_deg":97.2852,"raan_deg":344.6285,"arg_perigee_deg":81.5547,"mean_anomaly_deg":278.5886,"bstar":0.0013337,"rev_number":758,"period_min":91.417677227508,"perigee_km":343.10224440354,"apogee_km":345.09202570751,"semimajor_km":6722.2341350555,"source":"CELESTRAK","updated_at":"2026-05-25T13:38:21.990535Z"}}